Pipestone, MN

10:38 AM CDT on September 22, 2017 (GMT -0500)
Pipestone Municipal

Weather History for KPQN - December, 2013

Change the Weather History Date:

Monday, December 9, 2013

  Actual Average Record
Temperature  
Mean Temperature 0 °F -  
Max Temperature 14 °F 31 °F 55 °F (2006)
Min Temperature -11 °F 16 °F -11 °F (2013)
Degree Days  
Heating Degree Days 64    
Moisture  
Dew Point -8 °F    
Average Humidity 80    
Maximum Humidity 86    
Minimum Humidity 71    
Precipitation  
Precipitation 0.00 in - - ()
Sea Level Pressure  
Sea Level Pressure 29.99 in    
Wind  
Wind Speed 11 mph (West)    
Max Wind Speed 22 mph    
Max Gust Speed 29 mph    
Visibility 9 miles    
Events Snow    
Averages and records for this station are not official NWS values.
T = Trace of Precipitation, MM = Missing Value Source: NWS Daily Summary

Daily Weather History Graph

Daily Weather History Graph

Search for Another Location

Airport or City:

Trip Planner

Search our weather history database for the weather conditions in past years. The results will help you decide how hot, cold, wet, or windy it might be!

Date:

Astronomy

Dec. 09, 2013 Rise Set
Actual Time 7:48 AM CST 4:47 PM CST
Civil Twilight 7:15 AM CST 5:19 PM CST
Nautical Twilight 6:39 AM CST 5:56 PM CST
Astronomical Twilight 6:04 AM CST 6:31 PM CST
Moon 12:29 PM CST (12/9) No Moon Set
Length of Visible Light 10h 04m
Length of Day
8h 58m
Waxing Crescent, 51% of the Moon is Illuminated
Dec 9
Waxing Crescent
Dec 17
Full
Dec 25
Last Quarter
Jan 1
New
Jan 7
First Quarter

Hourly Weather History & Observations

Time (CST) Temp. Windchill Dew Point Humidity Pressure Visibility Wind Dir Wind Speed Gust Speed Precip Events Conditions
12:13 AM -5.8 °F -16.7 °F -9.4 °F 84% 30.01 in 10.0 mi West 4.6 mph - N/A   Clear
12:34 AM -2.2 °F -14.2 °F -5.8 °F 85% 30.01 in 10.0 mi West 5.8 mph - N/A   Clear
12:53 AM -2.2 °F -18.9 °F -7.6 °F 78% 30.01 in 10.0 mi WNW 10.4 mph - N/A   Clear
1:13 AM -2.2 °F -18.0 °F -7.6 °F 78% 30.01 in 10.0 mi WNW 9.2 mph - N/A   Scattered Clouds
1:33 AM -4.0 °F -20.2 °F -7.6 °F 85% 30.01 in 10.0 mi WNW 9.2 mph - N/A   Clear
1:53 AM -5.8 °F -19.9 °F -9.4 °F 84% 30.01 in 10.0 mi WNW 6.9 mph - N/A   Clear
2:13 AM -5.8 °F -22.4 °F -9.4 °F 84% 30.01 in 10.0 mi WNW 9.2 mph - N/A   Clear
2:33 AM -5.8 °F -22.4 °F -9.4 °F 84% 30.01 in 10.0 mi WNW 9.2 mph - N/A   Clear
2:53 AM -5.8 °F -24.4 °F -9.4 °F 84% 30.01 in 10.0 mi WNW 11.5 mph - N/A   Clear
3:13 AM -7.6 °F -25.7 °F -11.2 °F 84% 30.01 in 10.0 mi WNW 10.4 mph - N/A   Clear
3:33 AM -7.6 °F -23.4 °F -11.2 °F 84% 30.02 in 10.0 mi WNW 8.1 mph - N/A   Clear
3:54 AM -9.4 °F -24.3 °F -13.0 °F 84% 30.03 in 10.0 mi WNW 6.9 mph - N/A   Clear
4:13 AM -9.4 °F -25.6 °F -13.0 °F 84% 30.02 in 10.0 mi WNW 8.1 mph - N/A   Clear
4:33 AM -9.4 °F -27.9 °F -13.0 °F 84% 30.02 in 10.0 mi NW 10.4 mph - N/A   Clear
4:53 AM -9.4 °F -27.9 °F -13.0 °F 84% 30.02 in 10.0 mi NW 10.4 mph - N/A   Clear
5:13 AM -9.4 °F -29.8 °F -13.0 °F 84% 30.02 in 10.0 mi NW 12.7 mph - N/A   Clear
5:33 AM -9.4 °F -29.8 °F -13.0 °F 84% 30.03 in 10.0 mi NW 12.7 mph - N/A   Clear
5:54 AM -9.4 °F -28.9 °F -13.0 °F 84% 30.04 in 10.0 mi NW 11.5 mph - N/A   Unknown
6:13 AM -9.4 °F -29.8 °F -13.0 °F 84% 30.05 in 10.0 mi NW 12.7 mph - N/A   Clear
6:33 AM -9.4 °F - -13.0 °F 84% 30.05 in 10.0 mi North - - N/A Snow Light Snow
6:53 AM -9.4 °F -30.6 °F -13.0 °F 84% 30.06 in 10.0 mi NW 13.8 mph - N/A   Clear
7:13 AM -9.4 °F -25.6 °F -14.8 °F 77% 30.07 in 10.0 mi WNW 8.1 mph - N/A   Scattered Clouds
7:33 AM -11.2 °F -24.8 °F -16.6 °F 77% 30.08 in 10.0 mi WNW 5.8 mph - N/A Snow Light Snow
7:53 AM -9.4 °F -28.9 °F -14.8 °F 77% 30.09 in 10.0 mi WNW 11.5 mph - N/A   Scattered Clouds
8:14 AM -9.4 °F -26.8 °F -14.8 °F 77% 30.09 in 10.0 mi West 9.2 mph - N/A   Scattered Clouds
8:33 AM -11.2 °F -27.8 °F -16.6 °F 77% 30.10 in 10.0 mi West 8.1 mph - N/A   Mostly Cloudy
8:53 AM -9.4 °F -27.9 °F -14.8 °F 77% 30.10 in 10.0 mi WNW 10.4 mph - N/A   Scattered Clouds
9:13 AM -9.4 °F -29.8 °F -14.8 °F 77% 30.11 in 10.0 mi WNW 12.7 mph - N/A   Clear
9:33 AM -9.4 °F -29.8 °F -13.0 °F 84% 30.11 in 10.0 mi WNW 12.7 mph - N/A   Clear
9:53 AM -7.6 °F -26.6 °F -13.0 °F 77% 30.12 in 10.0 mi WNW 11.5 mph - N/A   Clear
10:13 AM -7.6 °F -28.3 °F -13.0 °F 77% 30.11 in 10.0 mi WNW 13.8 mph - N/A   Clear
10:33 AM -7.6 °F -28.3 °F -11.2 °F 84% 30.11 in 10.0 mi WNW 13.8 mph - N/A   Clear
10:53 AM -7.6 °F -29.8 °F -11.2 °F 84% 30.10 in 10.0 mi West 16.1 mph 20.7 mph N/A   Clear
11:13 AM -5.8 °F -26.0 °F -11.2 °F 77% 30.11 in 10.0 mi West 13.8 mph - N/A   Clear
11:33 AM -5.8 °F -25.2 °F -11.2 °F 77% 30.10 in 10.0 mi West 12.7 mph - N/A   Clear
11:53 AM -5.8 °F -26.8 °F -9.4 °F 84% 30.09 in 10.0 mi West 15.0 mph - N/A   Clear
12:13 PM -4.0 °F -23.0 °F -9.4 °F 78% 30.09 in 10.0 mi West 12.7 mph - N/A   Clear
12:33 PM -2.2 °F -19.9 °F -9.4 °F 71% 30.08 in 10.0 mi West 11.5 mph - N/A   Clear
12:53 PM -2.2 °F -20.7 °F -9.4 °F 71% 30.07 in 10.0 mi West 12.7 mph - N/A   Clear
1:14 PM -2.2 °F -18.9 °F -9.4 °F 71% 30.06 in 10.0 mi West 10.4 mph - N/A   Clear
1:33 PM -2.2 °F -19.9 °F -9.4 °F 71% 30.05 in 10.0 mi West 11.5 mph - N/A   Clear
1:53 PM -0.4 °F -16.7 °F -7.6 °F 72% 30.05 in 10.0 mi West 10.4 mph - N/A   Clear
2:13 PM -0.4 °F -16.7 °F -7.6 °F 72% 30.03 in 10.0 mi WSW 10.4 mph - N/A   Clear
2:33 PM -0.4 °F -16.7 °F -7.6 °F 72% 30.03 in 10.0 mi WSW 10.4 mph - N/A   Clear
2:54 PM -0.4 °F -16.7 °F -7.6 °F 72% 30.01 in 10.0 mi WSW 10.4 mph - N/A   Clear
3:13 PM -2.2 °F -20.7 °F -7.6 °F 78% 30.01 in 10.0 mi SW 12.7 mph - N/A   Clear
3:33 PM -2.2 °F -19.9 °F -7.6 °F 78% 30.01 in 10.0 mi WSW 11.5 mph - N/A   Clear
3:53 PM -2.2 °F -18.9 °F -7.6 °F 78% 30.02 in 10.0 mi WSW 10.4 mph - N/A   Clear
4:13 PM -2.2 °F -19.9 °F -7.6 °F 78% 30.01 in 10.0 mi SW 11.5 mph - N/A   Clear
4:33 PM -0.4 °F -16.7 °F -7.6 °F 72% 30.01 in 10.0 mi SW 10.4 mph - N/A   Clear
4:53 PM -4.0 °F -19.0 °F -9.4 °F 78% 29.99 in 10.0 mi SSW 8.1 mph - N/A   Clear
5:13 PM -4.0 °F -22.1 °F -9.4 °F 78% 29.98 in 10.0 mi SW 11.5 mph - N/A   Clear
5:33 PM -4.0 °F -22.1 °F -9.4 °F 78% 29.96 in 10.0 mi SSW 11.5 mph - N/A   Clear
5:53 PM -2.2 °F -20.7 °F -7.6 °F 78% 29.95 in 10.0 mi SSW 12.7 mph - N/A   Clear
6:13 PM -0.4 °F -20.5 °F -5.8 °F 78% 29.93 in 10.0 mi SSW 16.1 mph - N/A   Clear
6:33 PM 1.4 °F -18.8 °F -5.8 °F 72% 29.92 in 10.0 mi SSW 17.3 mph - N/A   Clear
6:53 PM 1.4 °F -19.4 °F -5.8 °F 72% 29.91 in 10.0 mi SSW 18.4 mph - N/A   Clear
7:13 PM 1.4 °F -19.4 °F -5.8 °F 72% 29.90 in 10.0 mi SSW 18.4 mph - N/A   Scattered Clouds
7:34 PM 1.4 °F -18.8 °F -4.0 °F 78% 29.88 in 10.0 mi SSW 17.3 mph - N/A   Mostly Cloudy
7:53 PM 3.2 °F -17.1 °F -2.2 °F 78% 29.87 in 10.0 mi SSW 18.4 mph - N/A   Scattered Clouds
8:13 PM 3.2 °F -18.6 °F -2.2 °F 78% 29.86 in 7.0 mi SSW 21.9 mph - N/A   Scattered Clouds
8:33 PM 3.2 °F -18.6 °F -0.4 °F 85% 29.83 in 4.0 mi SSW 21.9 mph - N/A   Haze
8:53 PM 3.2 °F -18.6 °F -0.4 °F 85% 29.82 in 4.0 mi SSW 21.9 mph - N/A   Haze
9:14 PM 3.2 °F -18.1 °F -0.4 °F 85% 29.80 in 5.0 mi SW 20.7 mph - N/A   Mostly Cloudy
9:33 PM 6.8 °F -13.4 °F 1.4 °F 79% 29.79 in 5.0 mi SW 20.7 mph - N/A   Overcast
9:53 PM 6.8 °F -12.9 °F 3.2 °F 85% 29.78 in 5.0 mi SW 19.6 mph 26.5 mph N/A   Overcast
10:13 PM 8.6 °F -10.0 °F 3.2 °F 79% 29.78 in 2.5 mi SW 18.4 mph 28.8 mph N/A Snow Light Snow
10:33 PM 8.6 °F -9.5 °F 5.0 °F 85% 29.76 in 4.0 mi WSW 17.3 mph - N/A Snow Light Snow
10:54 PM 10.4 °F -7.2 °F 6.8 °F 85% 29.76 in 7.0 mi SW 17.3 mph - N/A Snow Light Snow
11:13 PM 10.4 °F -5.4 °F 6.8 °F 85% 29.76 in 10.0 mi WSW 13.8 mph - N/A   Mostly Cloudy
11:33 PM 12.2 °F -2.5 °F 6.8 °F 79% 29.75 in 10.0 mi WSW 12.7 mph - N/A   Overcast
11:53 PM 14.0 °F -2.0 °F 10.4 °F 86% 29.75 in 7.0 mi West 16.1 mph - N/A Snow Light Snow